Regional Weather Roundup
Issued by NWS

Home | Current Version | Previous Version | Graphics & Text | Print | Product List | Glossary On
Versions: 1 2 3 4 5 6 7 8 9 10 11 12 13 14 15 16 17 18 19 20 21 22 23 24 25 26 27 28 29 30 31 32 33 34 35 36 37 38 39 40 41 42 43 44 45 46 47 48 49 50
000
ASUS45 KSLC 091510
RWRUT

UTAH REGIONAL WEATHER ROUNDUP
NATIONAL WEATHER SERVICE SALT LAKE CITY UT
800 AM MST TUE FEB 09 2016

UTZ001>011-023>025-091600-

NORTHERN UTAH

CITY           SKY/WX    TMP DP  RH WIND       PRES   REMARKS
BRIGHAM CITY     N/A     11   8  87 CALM      30.61S
HILL AFB       CLEAR     24  15  69 E15       30.58S WCI  11
LOGAN          FOG       12  10  92 CALM      30.63S VSB<1/4
OGDEN          PTCLDY    24  19  81 S5        30.59S WCI  18
PROVO AIRPORT    N/A    N/A N/A N/A CALM      30.62S
SALT LAKE CITY PTCLDY    25  22  88 S3        30.60S FOG
VERNAL         CLOUDY     7   3  84 CALM      30.57R FOG
WENDOVER       PTCLDY    21  19  93 CALM      30.61R
HEBER CITY     PTCLDY     1  -2  85 CALM      30.59S FOG
WEST JORDAN    CLEAR     23  21  93 S7        30.60S WCI  15

$$

UTZ012>022-026-027-091600-

SOUTHERN/CENTRAL UTAH

CITY           SKY/WX    TMP DP  RH WIND       PRES   REMARKS
BLANDING       PTCLDY    31  17  56 CALM      30.51S
BRYCE CANYON   PTCLDY     9   5  84 W10       30.54S WCI  -5
CEDAR CITY     PTCLDY    16  12  84 E3        30.53S
DELTA          CLOUDY     5   2  89 CALM      30.60S VSB<1/4
HANKSVILLE     MOCLDY    16  14  93 CALM      30.57S
MILFORD        FOG        1  -3  83 CALM      30.57S VSB<1/4
MOAB/CYNLANDS  MOCLDY    19  17  92 CALM      30.53S FOG
PRICE          PTCLDY    20  12  71 NE3       30.50R
ST GEORGE      SUNNY     36  21  55 SE3       30.49R
KANAB          CLEAR     30  27  86 NE7       30.49S WCI  23

$$

REGIONAL REPORTS     COLORADO/ARIZONA

CITY           SKY/WX    TMP DP  RH WIND       PRES   REMARKS
CRAIG, CO      FOG       -4  -8  83 CALM      30.55R VSB 3/4
GRAND JUNCTION CLOUDY    19  17  92 E6        30.54R WCI  11
RIFLE          CLOUDY    12   8  84 SE5       30.56S WCI   4
MONTROSE       CLOUDY    17  11  77 S6        30.56S WCI   9
CORTEZ         CLOUDY    19  12  74 NE8       30.45R WCI   9
PAGE, AZ       CLEAR     32  25  75 W3        30.49S
GRAND CANYON   PTCLDY    25  19  78 NE7       30.46F WCI  17
KINGMAN        PTCLDY    41  24  51 E8        30.36S
FLAGSTAFF      CLEAR     36  15  42 E12       30.46S WCI  28

$$

REGIONAL REPORTS    NEVADA/IDAHO/WYOMING

CITY           SKY/WX    TMP DP  RH WIND       PRES   REMARKS
LAS VEGAS, NV  CLEAR     47  27  45 CALM      30.35R
ELY            PTCLDY     6   2  83 S14       30.55F WCI -11
ELKO           FOG        7   5  91 E8        30.58S VSB 1/2 WCI  -6
POCATELLO, ID  FOG       20  18  92 NE6       30.60S VSB 1/2 WCI  12
BURLEY         CLOUDY    26  25  96 NE12      30.56S FOG     WCI  16
EVANSTON, WY   CLOUDY    24  17  74 S8        30.54S WCI  15
ROCK SPRINGS   CLOUDY    27  21  78 SW16      30.47S WCI  15

$$



USA.gov is the U.S. government's official web portal to all federal, state and local government web resources and services.